Flag for Germany Weather past 2 weeks in Werl, North Rhine-Westphalia, Germany

Now
61 °F

Scattered clouds.


Feels Like: 61 °F
Forecast: 53 / 63 °F
Wind: 12 mph from Southwest

Location: Dortmund / Wickede

Current Time: Aug 30, 2014 at 8:54:40 AM

Latest Report: Aug 30, 2014 at 8:20 AM


Visibility: N/A

Pressure: 30.01 "Hg

Humidity: 72%

Dew point: 52 °F

Location of WerlLocation

Historic Weather in Werl — Graph

°F

Werl temperature yesterday

Maximum temperature yesterday: 64 °F (at 10:50 AM)
Minimum temperature yesterday: 59 °F (at 6:20 AM)
Average temperature yesterday: 62 °F

Past Weeks' High & Low Weather Summary

 TemperatureHumidityPressure
High73 °F (Aug 28, 3:20 PM)100% (Aug 27, 6:20 AM)30.09 "Hg (Aug 27, 6:20 AM)
Low45 °F (Aug 27, 5:20 AM)43% (Aug 20, 2:50 PM)29.65 "Hg (Aug 26, 5:20 AM)
Average58 °F73%29.93 "Hg
* Reported Aug 15 7:20 AM — Aug 30 7:20 AM, Werl, Weather by CustomWeather, © 2014

Note: Actual official high and low records may vary slightly from our data, if they occured in-between our weather recording intervals... More about our weather records

Advertising

Werl weather history for previous 24 hours

 ConditionsComfort  
Time TempWeatherWind HumidityBarometerVisibility
7:20 AM
Aug 30
59 °FPassing clouds.10 mph77%30.01 "HgN/A
6:50 AM59 °FPassing clouds.12 mph77%30.01 "HgN/A
6:20 AM59 °FPassing clouds.12 mph77%30.01 "HgN/A
5:50 AM59 °FClear.10 mph77%30.01 "Hg10 mi
5:20 AM59 °FClear.10 mph77%30.01 "Hg10 mi
10:50 PM
Aug 29
59 °FClear.9 mph77%30.01 "Hg10 mi
9:20 PM59 °FSunny.8 mph72%30.01 "Hg10 mi
8:50 PM59 °FSunny.8 mph72%30.01 "Hg10 mi
8:20 PM61 °FSunny.8 mph72%30.01 "Hg10 mi
7:50 PM63 °FSunny.10 mph64%30.01 "Hg10 mi
7:20 PM63 °FSunny.10 mph64%29.98 "Hg10 mi
6:50 PM64 °FSunny.8 mph68%29.98 "Hg10 mi
6:20 PM64 °FSunny.9 mph64%29.98 "Hg10 mi
5:50 PM64 °FPassing clouds.10 mph64%30.01 "HgN/A
5:20 PM64 °FPassing clouds.9 mph68%30.01 "HgN/A
4:50 PM64 °FSunny.13 mph73%30.01 "Hg10 mi
4:20 PM64 °FPartly sunny.6 mph78%30.01 "HgN/A
3:50 PM63 °FSunny.9 mph77%30.01 "Hg10 mi
3:20 PM61 °FScattered showers. Partly sunny.12 mph83%30.01 "HgN/A
2:50 PM61 °FBroken clouds.10 mph83%30.04 "Hg5 mi
2:20 PM61 °FSprinkles. Partly sunny.10 mph83%30.04 "Hg6 mi
1:50 PM64 °FPartly sunny.9 mph68%30.01 "HgN/A
1:20 PM63 °FPartly sunny.12 mph73%30.01 "HgN/A
12:50 PM64 °FScattered clouds.13 mph78%30.01 "HgN/A
12:20 PM64 °FPartly sunny.10 mph78%30.01 "HgN/A
11:50 AM64 °FBroken clouds.13 mph73%30.01 "HgN/A
11:20 AM64 °FScattered clouds.12 mph78%30.01 "HgN/A
10:50 AM64 °FScattered clouds.12 mph78%29.98 "HgN/A
10:20 AM63 °FScattered clouds.10 mph77%29.98 "HgN/A
9:50 AM63 °FScattered clouds.9 mph83%29.98 "HgN/A
9:20 AM63 °FScattered clouds.12 mph77%29.98 "HgN/A
8:50 AM61 °FPassing clouds.9 mph83%29.98 "HgN/A
8:20 AM61 °FScattered clouds.7 mph83%29.98 "HgN/A
Weather by CustomWeather, © 2014

See weather overviewHow to use our weather pages